Regional Weather Roundup
Issued by NWS Northern Indiana

Home | Current Version | Previous Version | Text Only | Print | Product List | Glossary Off
Versions: 1 2 3 4 5 6 7 8 9 10 11 12 13 14 15 16 17 18 19 20 21 22 23 24 25 26 27 28 29 30 31 32 33 34 35 36 37 38 39 40 41 42 43 44 45 46 47 48 49 50

000
ASUS43 KIWX 210501
RWRIWX

KIWX WEATHER ROUNDUP
NATIONAL WEATHER SERVICE NORTHERN INDIANA
100 AM EDT MON AUG 21 2017

NOTE: "FAIR" INDICATES FEW OR NO CLOUDS BELOW 12,000 FEET WITH NO
SIGNIFICANT WEATHER AND/OR OBSTRUCTIONS TO VISIBILITY.

* THESE STATIONS ARE NOT UNDER NWS QUALITY CONTROL. THEY ALSO MAY NOT
  REPORT WEATHER SUCH AS PRECIPITATION OR FOG.

INZ001>027-210600-
NORTHERN INDIANA

CITY           SKY/WX    TMP DP  RH WIND       PRES   REMARKS
MICHIGAN CITY* CLOUDY    77  63  61 S5        30.06R
SOUTH BEND     CLOUDY    77  67  71 SE5       30.07S
GOSHEN         CLOUDY    73  67  81 S3        30.08S
MONTICELLO*    CLOUDY    75  67  77 SE3       30.05S
FORT WAYNE     MOCLDY    69  64  84 CALM      30.10S
PERU/GRISSOM   MOCLDY    73  65  77 SE3       30.08R

$$
INZ028>050-210600-
CENTRAL INDIANA

CITY           SKY/WX    TMP DP  RH WIND       PRES   REMARKS
LAFAYETTE      MOCLDY    74  68  81 SE5       30.05S
KOKOMO*        PTCLDY    70  66  87 SE5       30.10R
MUNCIE*        CLEAR     72  66  81 SE3       30.11R
INDIANAPOLIS   PTCLDY    75  70  84 SE5       30.09R

$$
MIZ043>046-050>051-056>058-064>065-071>073-077>080-210600-
SOUTHWEST LOWER MICHIGAN

CITY           SKY/WX    TMP DP  RH WIND       PRES   REMARKS
BATTLE CREEK   CLOUDY    72  65  78 S3        30.09S
BENTON HARBOR  CLOUDY    75  65  70 CALM      30.06R
COLDWATER*     CLOUDY    65  65 100 SE3       30.10S
HILLSDALE*     CLOUDY    64  63  94 CALM      30.11R FOG
HOLLAND        CLOUDY    71  66  84 CALM      30.07R
GRAND RAPIDS   CLOUDY    70  67  90 SE3       30.07R
KALAMAZOO      CLOUDY    74  64  71 S3        30.08S
STURGIS*       CLOUDY    67  65  92 CALM      30.09R
THREE RIVERS*  FAIR      73  66  80 CALM      30.09R

$$
OHZ001>008-015>018-024>025-210600-
NORTHWEST OHIO

CITY           SKY/WX    TMP DP  RH WIND       PRES   REMARKS
DEFIANCE       CLOUDY    70  67  90 SW5       30.09R
FINDLAY        CLOUDY    70  66  87 S5        30.10R FOG
TOLEDO EXPRESS MOCLDY    70  69  97 E3        30.08S
TOLEDO METCALF PTCLDY    72  69  90 S3        30.10R
LIMA           PTCLDY    70  67  90 SW3       30.12R

$$
AND FOR LAKE MICHIGAN COASTAL AND OPEN LAKE BUOY OBSERVATIONS

STATION/POSITION TEMP    WIND        PRES    VSBY  WAVE
                 AIR SEA DIR/SP/G                  HT/PER
                 (F)     (DEG/KT/KT) (MB)    (MI)  (FT/S)
CALUMET HARBOR    79     160/  2/  4 1016.4F
MICHIGAN CITY     79     150/  8/ 11   N/A
BURNS HARBOR      81     160/  8/ 13 1017.6R
SAINT JOSEPH      77      CALM  /  4 1018.6
SOUTH LAKE BUOY   74 72  180/  8/  8 1017.1          0
4 MI NW BRIDGMAN  77 74  160/  6/  8 1017.2R         1
MICHIGAN CITY     78 75  170/ 10/ 12   N/A           1

$$
&&




USA.gov is the U.S. government's official web portal to all federal, state and local government web resources and services.